Location: Kosice
(0.0000°N, 21.2500°E)
Time: 06:01:26
(UTC+01:00)

Cosmos 2369 Rocket - Pass Details

Date: 24 January 2021
Orbit: 830 x 851 km, 71.0° (Epoch: 04 March)

Event Time Altitude Azimuth Distance (km) Brightness Sun altitude
Rises 19:42:50 0° 196° (SSW) 3,413 5.9 -27.2°
Reaches altitude 10° 19:45:18 10° 196° (SSW) 2,475 5.0 -27.8°
Enters shadow 19:50:38 79° 204° (SSW) 865 2.2 -29.0°
